Wolke Sonne

Wetter Roßtal

Gehe zu: Ammerndorf | Roßtal 2

Tageswerte vom Donnerstag, 17.10.2019

Optionen

Tag:
Erweitert:

Alle Werte vom Donnerstag, 17.10.2019

Einen Moment bitte, die Daten werden aufbereitet...

UhrzeitTemperaturFeuchteLuftdruckNiederschlagEvapotranspirationNiederschlag?WindWindböenRegenrateWindrichtungHelligkeitSolarstrahlungUV-IndexSonne?Feinstaub 10µmUhrzeit
Diagramm IconDiagramm IconDiagramm IconDiagramm IconDiagramm IconDiagramm IconDiagramm IconDiagramm IconDiagramm IconDiagramm IconDiagramm IconDiagramm IconDiagramm IconDiagramm IconDiagramm Icon
00:0010,6 °C 79 % 1016,1 hPa 0,0 mm 0,0 mm nein 9,7 km/h 16,1 km/h 0,0 mm/h SSO 0,000 klux 0,0 W/qm 0,0 nein - 00:00
00:0510,6 °C 79 % 1016,1 hPa 0,0 mm 0,0 mm nein 11,3 km/h 16,1 km/h 0,0 mm/h SSO 0,000 klux 0,0 W/qm 0,0 nein - 00:05
00:1010,0 °C 79 % 1016,1 hPa 0,0 mm 0,0 mm nein 9,7 km/h 14,5 km/h 0,0 mm/h SSO 0,000 klux 0,0 W/qm 0,0 nein - 00:10
00:1510,0 °C 79 % 1016,2 hPa 0,0 mm 0,0 mm nein 9,7 km/h 16,1 km/h 0,0 mm/h SSO 0,000 klux 0,0 W/qm 0,0 nein - 00:15
00:2010,0 °C 79 % 1016,1 hPa 0,0 mm 0,0 mm nein 9,7 km/h 12,9 km/h 0,0 mm/h SSO 0,000 klux 0,0 W/qm 0,0 nein - 00:20
00:2510,0 °C 79 % 1016,1 hPa 0,0 mm 0,0 mm nein 11,3 km/h 17,7 km/h 0,0 mm/h SSO 0,000 klux 0,0 W/qm 0,0 nein - 00:25
00:3010,0 °C 79 % 1016,1 hPa 0,0 mm 0,0 mm nein 11,3 km/h 16,1 km/h 0,0 mm/h SSO 0,000 klux 0,0 W/qm 0,0 nein - 00:30
00:3510,0 °C 79 % 1016,1 hPa 0,0 mm 0,0 mm nein 9,7 km/h 16,1 km/h 0,0 mm/h SSO 0,000 klux 0,0 W/qm 0,0 nein - 00:35
00:4010,0 °C 79 % 1016,1 hPa 0,0 mm 0,0 mm nein 9,7 km/h 14,5 km/h 0,0 mm/h SSO 0,000 klux 0,0 W/qm 0,0 nein - 00:40
00:4510,0 °C 79 % 1016,2 hPa 0,0 mm 0,0 mm nein 8,0 km/h 14,5 km/h 0,0 mm/h SSO 0,000 klux 0,0 W/qm 0,0 nein - 00:45
00:5010,0 °C 79 % 1016,1 hPa 0,0 mm 0,0 mm nein 8,0 km/h 12,9 km/h 0,0 mm/h SSO 0,000 klux 0,0 W/qm 0,0 nein - 00:50
00:5510,0 °C 79 % 1016,2 hPa 0,0 mm 0,0 mm nein 9,7 km/h 14,5 km/h 0,0 mm/h SSO 0,000 klux 0,0 W/qm 0,0 nein - 00:55
01:009,4 °C 79 % 1016,4 hPa 0,0 mm 0,0 mm nein 9,7 km/h 16,1 km/h 0,0 mm/h SSO 0,000 klux 0,0 W/qm 0,0 nein - 01:00
01:059,4 °C 79 % 1016,4 hPa 0,0 mm 0,0 mm nein 8,0 km/h 14,5 km/h 0,0 mm/h SSO 0,000 klux 0,0 W/qm 0,0 nein - 01:05
01:109,4 °C 79 % 1016,4 hPa 0,0 mm 0,0 mm nein 4,8 km/h 12,9 km/h 0,0 mm/h SSO 0,000 klux 0,0 W/qm 0,0 nein - 01:10
01:159,4 °C 79 % 1016,2 hPa 0,0 mm 0,0 mm nein 9,7 km/h 14,5 km/h 0,0 mm/h SSO 0,000 klux 0,0 W/qm 0,0 nein - 01:15
01:209,4 °C 79 % 1016,2 hPa 0,0 mm 0,0 mm nein 8,0 km/h 14,5 km/h 0,0 mm/h SSO 0,000 klux 0,0 W/qm 0,0 nein - 01:20
01:259,4 °C 80 % 1016,2 hPa 0,0 mm 0,0 mm nein 9,7 km/h 12,9 km/h 0,0 mm/h SSO 0,000 klux 0,0 W/qm 0,0 nein - 01:25
01:309,4 °C 79 % 1016,2 hPa 0,0 mm 0,0 mm nein 6,4 km/h 16,1 km/h 0,0 mm/h SSO 0,000 klux 0,0 W/qm 0,0 nein - 01:30
01:359,4 °C 80 % 1016,3 hPa 0,0 mm 0,0 mm nein 3,2 km/h 11,3 km/h 0,0 mm/h SSO 0,000 klux 0,0 W/qm 0,0 nein - 01:35
01:409,4 °C 80 % 1016,3 hPa 0,0 mm 0,0 mm nein 8,0 km/h 12,9 km/h 0,0 mm/h SSO 0,000 klux 0,0 W/qm 0,0 nein - 01:40
01:459,4 °C 80 % 1016,5 hPa 0,0 mm 0,0 mm nein 9,7 km/h 12,9 km/h 0,0 mm/h SSO 0,000 klux 0,0 W/qm 0,0 nein - 01:45
01:509,4 °C 80 % 1016,3 hPa 0,0 mm 0,0 mm nein 6,4 km/h 12,9 km/h 0,0 mm/h SSO 0,000 klux 0,0 W/qm 0,0 nein - 01:50
01:559,4 °C 80 % 1016,5 hPa 0,0 mm 0,0 mm nein 8,0 km/h 14,5 km/h 0,0 mm/h SSO 0,000 klux 0,0 W/qm 0,0 nein - 01:55
UhrzeitTemperaturFeuchteLuftdruckNiederschlagEvapotranspirationNiederschlag?WindWindböenRegenrateWindrichtungHelligkeitSolarstrahlungUV-IndexSonne?Feinstaub 10µmUhrzeit
02:009,4 °C 80 % 1016,5 hPa 0,0 mm 0,0 mm nein 8,0 km/h 12,9 km/h 0,0 mm/h SSO 0,000 klux 0,0 W/qm 0,0 nein - 02:00
02:059,4 °C 80 % 1016,3 hPa 0,0 mm 0,0 mm nein 0,0 km/h 8,0 km/h 0,0 mm/h SSO 0,000 klux 0,0 W/qm 0,0 nein - 02:05
02:109,4 °C 80 % 1016,5 hPa 0,0 mm 0,0 mm nein 0,0 km/h 8,0 km/h 0,0 mm/h SSO 0,000 klux 0,0 W/qm 0,0 nein - 02:10
02:159,4 °C 80 % 1016,6 hPa 0,0 mm 0,0 mm nein 0,0 km/h 3,2 km/h 0,0 mm/h SSO 0,000 klux 0,0 W/qm 0,0 nein - 02:15
02:209,4 °C 80 % 1016,6 hPa 0,0 mm 0,0 mm nein 0,0 km/h 1,6 km/h 0,0 mm/h SSO 0,000 klux 0,0 W/qm 0,0 nein - 02:20
02:259,4 °C 80 % 1016,6 hPa 0,0 mm 0,0 mm nein 0,0 km/h 1,6 km/h 0,0 mm/h SO 0,000 klux 0,0 W/qm 0,0 nein - 02:25
02:309,4 °C 80 % 1016,6 hPa 0,0 mm 0,0 mm nein 4,8 km/h 12,9 km/h 0,0 mm/h SSO 0,000 klux 0,0 W/qm 0,0 nein - 02:30
02:358,9 °C 80 % 1016,6 hPa 0,0 mm 0,0 mm nein 8,0 km/h 12,9 km/h 0,0 mm/h SSO 0,000 klux 0,0 W/qm 0,0 nein - 02:35
02:408,9 °C 80 % 1016,5 hPa 0,0 mm 0,0 mm nein 9,7 km/h 12,9 km/h 0,0 mm/h SSO 0,000 klux 0,0 W/qm 0,0 nein - 02:40
02:458,9 °C 80 % 1016,6 hPa 0,0 mm 0,0 mm nein 8,0 km/h 14,5 km/h 0,0 mm/h SSO 0,000 klux 0,0 W/qm 0,0 nein - 02:45
02:508,9 °C 80 % 1016,5 hPa 0,0 mm 0,0 mm nein 8,0 km/h 12,9 km/h 0,0 mm/h SSO 0,000 klux 0,0 W/qm 0,0 nein - 02:50
02:558,9 °C 80 % 1016,5 hPa 0,0 mm 0,0 mm nein 3,2 km/h 12,9 km/h 0,0 mm/h SSO 0,000 klux 0,0 W/qm 0,0 nein - 02:55
03:008,9 °C 80 % 1016,5 hPa 0,0 mm 0,0 mm nein 1,6 km/h 11,3 km/h 0,0 mm/h SSO 0,000 klux 0,0 W/qm 0,0 nein - 03:00
03:058,9 °C 81 % 1016,5 hPa 0,0 mm 0,0 mm nein 1,6 km/h 11,3 km/h 0,0 mm/h SSO 0,000 klux 0,0 W/qm 0,0 nein - 03:05
03:108,9 °C 81 % 1016,4 hPa 0,0 mm 0,0 mm nein 3,2 km/h 14,5 km/h 0,0 mm/h SSO 0,000 klux 0,0 W/qm 0,0 nein - 03:10
03:158,9 °C 81 % 1016,4 hPa 0,0 mm 0,0 mm nein 9,7 km/h 16,1 km/h 0,0 mm/h SSO 0,000 klux 0,0 W/qm 0,0 nein - 03:15
03:208,9 °C 81 % 1016,4 hPa 0,0 mm 0,0 mm nein 4,8 km/h 14,5 km/h 0,0 mm/h SSO 0,000 klux 0,0 W/qm 0,0 nein - 03:20
03:258,9 °C 81 % 1016,5 hPa 0,0 mm 0,0 mm nein 8,0 km/h 12,9 km/h 0,0 mm/h SSO 0,000 klux 0,0 W/qm 0,0 nein - 03:25
03:308,3 °C 81 % 1016,5 hPa 0,0 mm 0,0 mm nein 4,8 km/h 12,9 km/h 0,0 mm/h SSO 0,000 klux 0,0 W/qm 0,0 nein - 03:30
03:358,3 °C 81 % 1016,5 hPa 0,0 mm 0,0 mm nein 1,6 km/h 12,9 km/h 0,0 mm/h SSO 0,000 klux 0,0 W/qm 0,0 nein - 03:35
03:408,3 °C 81 % 1016,5 hPa 0,0 mm 0,0 mm nein 3,2 km/h 12,9 km/h 0,0 mm/h SSO 0,000 klux 0,0 W/qm 0,0 nein - 03:40
03:458,3 °C 81 % 1016,4 hPa 0,0 mm 0,0 mm nein 8,0 km/h 12,9 km/h 0,0 mm/h SSO 0,000 klux 0,0 W/qm 0,0 nein - 03:45
03:508,3 °C 82 % 1016,3 hPa 0,0 mm 0,0 mm nein 8,0 km/h 14,5 km/h 0,0 mm/h SSO 0,000 klux 0,0 W/qm 0,0 nein - 03:50
03:558,3 °C 82 % 1016,4 hPa 0,0 mm 0,0 mm nein 3,2 km/h 12,9 km/h 0,0 mm/h SSO 0,000 klux 0,0 W/qm 0,0 nein - 03:55
UhrzeitTemperaturFeuchteLuftdruckNiederschlagEvapotranspirationNiederschlag?WindWindböenRegenrateWindrichtungHelligkeitSolarstrahlungUV-IndexSonne?Feinstaub 10µmUhrzeit
04:008,3 °C 82 % 1016,3 hPa 0,0 mm 0,0 mm nein 1,6 km/h 8,0 km/h 0,0 mm/h SSO 0,000 klux 0,0 W/qm 0,0 nein - 04:00
04:058,3 °C 82 % 1016,4 hPa 0,0 mm 0,0 mm nein 1,6 km/h 11,3 km/h 0,0 mm/h SSO 0,000 klux 0,0 W/qm 0,0 nein - 04:05
04:108,3 °C 82 % 1016,4 hPa 0,0 mm 0,0 mm nein 0,0 km/h 0,0 km/h 0,0 mm/h N 0,000 klux 0,0 W/qm 0,0 nein - 04:10
04:158,3 °C 82 % 1016,5 hPa 0,0 mm 0,0 mm nein 0,0 km/h 0,0 km/h 0,0 mm/h N 0,000 klux 0,0 W/qm 0,0 nein - 04:15
04:208,3 °C 82 % 1016,5 hPa 0,0 mm 0,0 mm nein 0,0 km/h 0,0 km/h 0,0 mm/h N 0,000 klux 0,0 W/qm 0,0 nein - 04:20
04:258,3 °C 82 % 1016,4 hPa 0,0 mm 0,0 mm nein 0,0 km/h 0,0 km/h 0,0 mm/h N 0,000 klux 0,0 W/qm 0,0 nein - 04:25
04:308,3 °C 82 % 1016,4 hPa 0,0 mm 0,0 mm nein 0,0 km/h 0,0 km/h 0,0 mm/h N 0,000 klux 0,0 W/qm 0,0 nein - 04:30
04:358,3 °C 82 % 1016,5 hPa 0,0 mm 0,0 mm nein 0,0 km/h 0,0 km/h 0,0 mm/h N 0,000 klux 0,0 W/qm 0,0 nein - 04:35
04:408,3 °C 82 % 1016,4 hPa 0,0 mm 0,0 mm nein 0,0 km/h 9,7 km/h 0,0 mm/h SSO 0,000 klux 0,0 W/qm 0,0 nein - 04:40
04:457,8 °C 82 % 1016,3 hPa 0,0 mm 0,0 mm nein 6,4 km/h 11,3 km/h 0,0 mm/h SSO 0,000 klux 0,0 W/qm 0,0 nein - 04:45
04:507,8 °C 83 % 1016,4 hPa 0,0 mm 0,0 mm nein 0,0 km/h 0,0 km/h 0,0 mm/h N 0,000 klux 0,0 W/qm 0,0 nein - 04:50
04:557,8 °C 83 % 1016,4 hPa 0,0 mm 0,0 mm nein 0,0 km/h 0,0 km/h 0,0 mm/h N 0,000 klux 0,0 W/qm 0,0 nein - 04:55
05:007,8 °C 83 % 1016,5 hPa 0,0 mm 0,0 mm nein 3,2 km/h 11,3 km/h 0,0 mm/h SSO 0,000 klux 0,0 W/qm 0,0 nein - 05:00
05:057,8 °C 83 % 1016,5 hPa 0,0 mm 0,0 mm nein 0,0 km/h 12,9 km/h 0,0 mm/h SSW 0,000 klux 0,0 W/qm 0,0 nein - 05:05
05:107,8 °C 83 % 1016,5 hPa 0,0 mm 0,0 mm nein 1,6 km/h 9,7 km/h 0,0 mm/h S 0,000 klux 0,0 W/qm 0,0 nein - 05:10
05:158,3 °C 83 % 1016,4 hPa 0,0 mm 0,0 mm nein 3,2 km/h 9,7 km/h 0,0 mm/h SSO 0,000 klux 0,0 W/qm 0,0 nein - 05:15
05:208,3 °C 83 % 1016,4 hPa 0,0 mm 0,0 mm nein 1,6 km/h 11,3 km/h 0,0 mm/h S 0,000 klux 0,0 W/qm 0,0 nein - 05:20
05:258,3 °C 83 % 1016,3 hPa 0,0 mm 0,0 mm nein 0,0 km/h 1,6 km/h 0,0 mm/h SO 0,000 klux 0,0 W/qm 0,0 nein - 05:25
05:308,3 °C 83 % 1016,4 hPa 0,0 mm 0,0 mm nein 0,0 km/h 8,0 km/h 0,0 mm/h SSO 0,000 klux 0,0 W/qm 0,0 nein - 05:30
05:358,3 °C 83 % 1016,4 hPa 0,0 mm 0,0 mm nein 4,8 km/h 12,9 km/h 0,0 mm/h SSO 0,000 klux 0,0 W/qm 0,0 nein - 05:35
05:408,3 °C 83 % 1016,4 hPa 0,0 mm 0,0 mm nein 3,2 km/h 12,9 km/h 0,0 mm/h SSO 0,000 klux 0,0 W/qm 0,0 nein - 05:40
05:458,3 °C 83 % 1016,5 hPa 0,0 mm 0,0 mm nein 0,0 km/h 0,0 km/h 0,0 mm/h N 0,000 klux 0,0 W/qm 0,0 nein - 05:45
05:508,9 °C 82 % 1016,4 hPa 0,0 mm 0,0 mm nein 1,6 km/h 12,9 km/h 0,0 mm/h S 0,000 klux 0,0 W/qm 0,0 nein - 05:50
05:558,9 °C 82 % 1016,4 hPa 0,0 mm 0,0 mm nein 4,8 km/h 14,5 km/h 0,0 mm/h S 0,000 klux 0,0 W/qm 0,0 nein - 05:55
UhrzeitTemperaturFeuchteLuftdruckNiederschlagEvapotranspirationNiederschlag?WindWindböenRegenrateWindrichtungHelligkeitSolarstrahlungUV-IndexSonne?Feinstaub 10µmUhrzeit
06:008,9 °C 82 % 1016,4 hPa 0,0 mm 0,0 mm nein 3,2 km/h 16,1 km/h 0,0 mm/h S 0,000 klux 0,0 W/qm 0,0 nein - 06:00
06:058,9 °C 82 % 1016,4 hPa 0,0 mm 0,0 mm nein 4,8 km/h 12,9 km/h 0,0 mm/h S 0,000 klux 0,0 W/qm 0,0 nein - 06:05
06:109,4 °C 81 % 1016,3 hPa 0,0 mm 0,0 mm nein 8,0 km/h 17,7 km/h 0,0 mm/h S 0,000 klux 0,0 W/qm 0,0 nein - 06:10
06:159,4 °C 81 % 1016,2 hPa 0,0 mm 0,0 mm nein 4,8 km/h 12,9 km/h 0,0 mm/h SSO 0,000 klux 0,0 W/qm 0,0 nein - 06:15
06:209,4 °C 81 % 1016,1 hPa 0,0 mm 0,0 mm nein 3,2 km/h 14,5 km/h 0,0 mm/h SSO 0,000 klux 0,0 W/qm 0,0 nein - 06:20
06:259,4 °C 81 % 1016,1 hPa 0,0 mm 0,0 mm nein 1,6 km/h 16,1 km/h 0,0 mm/h S 0,000 klux 0,0 W/qm 0,0 nein - 06:25
06:309,4 °C 81 % 1016,1 hPa 0,0 mm 0,0 mm nein 3,2 km/h 12,9 km/h 0,0 mm/h S 0,000 klux 0,0 W/qm 0,0 nein - 06:30
06:359,4 °C 81 % 1015,9 hPa 0,0 mm 0,0 mm nein 4,8 km/h 12,9 km/h 0,0 mm/h SSO 0,000 klux 0,0 W/qm 0,0 nein - 06:35
06:409,4 °C 80 % 1015,9 hPa 0,0 mm 0,0 mm nein 4,8 km/h 12,9 km/h 0,0 mm/h S 0,000 klux 0,0 W/qm 0,0 nein - 06:40
06:4510,0 °C 80 % 1016,0 hPa 0,0 mm 0,0 mm nein 1,6 km/h 12,9 km/h 0,0 mm/h S 0,000 klux 0,0 W/qm 0,0 nein - 06:45
06:5010,0 °C 81 % 1015,9 hPa 0,0 mm 0,0 mm nein 0,0 km/h 4,8 km/h 0,0 mm/h S 0,000 klux 0,0 W/qm 0,0 nein - 06:50
06:5510,0 °C 80 % 1015,9 hPa 0,0 mm 0,0 mm nein 1,6 km/h 8,0 km/h 0,0 mm/h S 0,000 klux 0,0 W/qm 0,0 nein - 06:55
07:0010,0 °C 80 % 1016,0 hPa 0,0 mm 0,0 mm nein 4,8 km/h 14,5 km/h 0,0 mm/h S 0,000 klux 0,0 W/qm 0,0 nein - 07:00
07:0510,0 °C 80 % 1015,9 hPa 0,0 mm 0,0 mm nein 4,8 km/h 14,5 km/h 0,0 mm/h S 0,000 klux 0,0 W/qm 0,0 nein - 07:05
07:1010,0 °C 80 % 1016,0 hPa 0,0 mm 0,0 mm nein 8,0 km/h 14,5 km/h 0,0 mm/h S 0,000 klux 0,0 W/qm 0,0 nein - 07:10
07:1510,0 °C 80 % 1015,9 hPa 0,0 mm 0,0 mm nein 4,8 km/h 12,9 km/h 0,0 mm/h SSO 0,000 klux 0,0 W/qm 0,0 nein - 07:15
07:2010,0 °C 80 % 1016,0 hPa 0,0 mm 0,0 mm nein 4,8 km/h 12,9 km/h 0,0 mm/h SSO 0,000 klux 0,0 W/qm 0,0 nein - 07:20
07:2510,0 °C 80 % 1016,2 hPa 0,0 mm 0,0 mm nein 6,4 km/h 14,5 km/h 0,0 mm/h S 0,000 klux 0,0 W/qm 0,0 nein - 07:25
07:3010,0 °C 80 % 1016,1 hPa 0,0 mm 0,0 mm nein 6,4 km/h 14,5 km/h 0,0 mm/h S 0,000 klux 0,0 W/qm 0,0 nein - 07:30
07:3510,0 °C 80 % 1016,2 hPa 0,0 mm 0,0 mm nein 4,8 km/h 12,9 km/h 0,0 mm/h S 0,000 klux 0,0 W/qm 0,0 nein - 07:35
07:4010,0 °C 79 % 1016,2 hPa 0,0 mm 0,0 mm nein 6,4 km/h 14,5 km/h 0,0 mm/h SSO 0,673 klux 4,0 W/qm 0,0 nein - 07:40
07:4510,0 °C 79 % 1016,2 hPa 0,0 mm 0,0 mm nein 4,8 km/h 11,3 km/h 0,0 mm/h S 1,173 klux 7,0 W/qm 0,0 nein - 07:45
07:5010,6 °C 80 % 1016,2 hPa 0,0 mm 0,0 mm nein 4,8 km/h 12,9 km/h 0,0 mm/h S 0,667 klux 4,0 W/qm 0,0 nein - 07:50
07:5510,6 °C 80 % 1016,2 hPa 0,0 mm 0,0 mm nein 6,4 km/h 11,3 km/h 0,0 mm/h S 0,997 klux 6,0 W/qm 0,0 nein - 07:55
UhrzeitTemperaturFeuchteLuftdruckNiederschlagEvapotranspirationNiederschlag?WindWindböenRegenrateWindrichtungHelligkeitSolarstrahlungUV-IndexSonne?Feinstaub 10µmUhrzeit
08:0010,6 °C 80 % 1016,3 hPa 0,0 mm 0,0 mm nein 3,2 km/h 17,7 km/h 0,0 mm/h S 1,820 klux 11,0 W/qm 0,0 nein - 08:00
08:0510,6 °C 80 % 1016,3 hPa 0,0 mm 0,0 mm nein 1,6 km/h 12,9 km/h 0,0 mm/h SSO 2,637 klux 16,0 W/qm 0,0 nein - 08:05
08:1010,6 °C 80 % 1016,3 hPa 0,0 mm 0,0 mm nein 0,0 km/h 0,0 km/h 0,0 mm/h N 2,954 klux 18,0 W/qm 0,0 nein - 08:10
08:1510,6 °C 80 % 1016,3 hPa 0,0 mm 0,0 mm nein 0,0 km/h 0,0 km/h 0,0 mm/h N 3,269 klux 20,0 W/qm 0,0 nein - 08:15
08:2010,6 °C 80 % 1016,5 hPa 0,0 mm 0,0 mm nein 3,2 km/h 6,4 km/h 0,0 mm/h SSO 5,047 klux 31,0 W/qm 0,0 nein - 08:20
08:2510,6 °C 80 % 1016,6 hPa 0,0 mm 0,0 mm nein 3,2 km/h 9,7 km/h 0,0 mm/h SSO 8,107 klux 50,0 W/qm 0,0 ja - 08:25
08:3010,6 °C 80 % 1016,6 hPa 0,0 mm 0,0 mm nein 0,0 km/h 3,2 km/h 0,0 mm/h SSO 10,496 klux 65,0 W/qm 0,0 ja - 08:30
08:3510,6 °C 80 % 1016,7 hPa 0,0 mm 0,0 mm nein 4,8 km/h 11,3 km/h 0,0 mm/h SSO 10,454 klux 65,0 W/qm 0,0 ja - 08:35
08:4010,6 °C 80 % 1016,8 hPa 0,0 mm 0,0 mm nein 8,0 km/h 12,9 km/h 0,0 mm/h SSO 10,252 klux 64,0 W/qm 0,0 nein - 08:40
08:4510,6 °C 80 % 1016,8 hPa 0,0 mm 0,0 mm nein 8,0 km/h 12,9 km/h 0,0 mm/h SSO 12,444 klux 78,0 W/qm 0,0 ja - 08:45
08:5011,1 °C 80 % 1016,7 hPa 0,0 mm 0,0 mm nein 6,4 km/h 12,9 km/h 0,0 mm/h SSO 13,030 klux 82,0 W/qm 0,0 ja - 08:50
08:5511,1 °C 80 % 1016,7 hPa 0,0 mm 0,0 mm nein 8,0 km/h 16,1 km/h 0,0 mm/h SSO 17,093 klux 108,0 W/qm 0,0 ja - 08:55
09:0011,7 °C 79 % 1016,6 hPa 0,0 mm 0,1 mm nein 8,0 km/h 12,9 km/h 0,0 mm/h SSO 16,868 klux 107,0 W/qm 0,0 ja - 09:00
09:0511,7 °C 78 % 1016,6 hPa 0,0 mm 0,0 mm nein 8,0 km/h 16,1 km/h 0,0 mm/h SSO 10,050 klux 64,0 W/qm 0,0 nein - 09:05
09:1011,7 °C 77 % 1016,6 hPa 0,0 mm 0,0 mm nein 1,6 km/h 8,0 km/h 0,0 mm/h SSO 10,167 klux 65,0 W/qm 0,0 nein - 09:10
09:1511,7 °C 78 % 1016,8 hPa 0,0 mm 0,0 mm nein 0,0 km/h 0,0 km/h 0,0 mm/h N 13,555 klux 87,0 W/qm 0,0 nein - 09:15
09:2011,7 °C 78 % 1016,7 hPa 0,0 mm 0,0 mm nein 0,0 km/h 0,0 km/h 0,0 mm/h N 16,142 klux 104,0 W/qm 0,0 nein - 09:20
09:2512,2 °C 78 % 1016,5 hPa 0,0 mm 0,0 mm nein 0,0 km/h 0,0 km/h 0,0 mm/h N 15,771 klux 102,0 W/qm 0,0 nein - 09:25
09:3012,2 °C 78 % 1016,6 hPa 0,0 mm 0,0 mm nein 0,0 km/h 0,0 km/h 0,0 mm/h N 10,782 klux 70,0 W/qm 0,0 nein - 09:30
09:3512,2 °C 77 % 1016,5 hPa 0,0 mm 0,0 mm nein 0,0 km/h 0,0 km/h 0,0 mm/h N 7,673 klux 50,0 W/qm 0,0 nein - 09:35
09:4012,2 °C 77 % 1016,6 hPa 0,0 mm 0,0 mm nein 0,0 km/h 0,0 km/h 0,0 mm/h N 11,008 klux 72,0 W/qm 0,0 nein - 09:40
09:4512,2 °C 78 % 1016,5 hPa 0,0 mm 0,0 mm nein 0,0 km/h 0,0 km/h 0,0 mm/h N 11,425 klux 75,0 W/qm 0,0 nein - 09:45
09:5012,2 °C 78 % 1016,5 hPa 0,0 mm 0,0 mm nein 0,0 km/h 0,0 km/h 0,0 mm/h N 15,936 klux 105,0 W/qm 0,0 nein - 09:50
09:5512,2 °C 78 % 1016,5 hPa 0,0 mm 0,0 mm nein 4,8 km/h 14,5 km/h 0,0 mm/h SSO 18,904 klux 125,0 W/qm 0,0 nein - 09:55
UhrzeitTemperaturFeuchteLuftdruckNiederschlagEvapotranspirationNiederschlag?WindWindböenRegenrateWindrichtungHelligkeitSolarstrahlungUV-IndexSonne?Feinstaub 10µmUhrzeit
10:0012,8 °C 77 % 1016,4 hPa 0,0 mm 0,1 mm nein 6,4 km/h 14,5 km/h 0,0 mm/h SSO 22,303 klux 148,0 W/qm 0,0 nein - 10:00
10:0512,8 °C 77 % 1016,5 hPa 0,0 mm 0,0 mm nein 1,6 km/h 11,3 km/h 0,0 mm/h SSO 14,417 klux 96,0 W/qm 0,0 nein - 10:05
10:1012,8 °C 78 % 1016,5 hPa 0,0 mm 0,0 mm nein 0,0 km/h 0,0 km/h 0,0 mm/h N 10,925 klux 73,0 W/qm 0,0 nein - 10:10
10:1512,8 °C 78 % 1016,6 hPa 0,0 mm 0,0 mm nein 0,0 km/h 0,0 km/h 0,0 mm/h N 11,485 klux 77,0 W/qm 0,0 nein - 10:15
10:2012,8 °C 79 % 1016,6 hPa 0,0 mm 0,0 mm nein 0,0 km/h 0,0 km/h 0,0 mm/h N 12,785 klux 86,0 W/qm 0,0 nein - 10:20
10:2512,8 °C 79 % 1016,7 hPa 0,0 mm 0,0 mm nein 0,0 km/h 0,0 km/h 0,0 mm/h N 17,041 klux 115,0 W/qm 0,0 nein - 10:25
10:3012,8 °C 80 % 1016,7 hPa 0,0 mm 0,0 mm nein 0,0 km/h 0,0 km/h 0,0 mm/h N 19,350 klux 131,0 W/qm 0,5 nein - 10:30
10:3512,8 °C 79 % 1016,7 hPa 0,0 mm 0,0 mm nein 0,0 km/h 0,0 km/h 0,0 mm/h N 17,080 klux 116,0 W/qm 0,1 nein - 10:35
10:4012,8 °C 78 % 1016,8 hPa 0,0 mm 0,0 mm nein 0,0 km/h 0,0 km/h 0,0 mm/h N 17,028 klux 116,0 W/qm 0,5 nein - 10:40
10:4512,8 °C 78 % 1016,8 hPa 0,0 mm 0,0 mm nein 0,0 km/h 0,0 km/h 0,0 mm/h N 19,612 klux 134,0 W/qm 0,7 nein - 10:45
10:5012,8 °C 78 % 1016,8 hPa 0,0 mm 0,0 mm nein 0,0 km/h 0,0 km/h 0,0 mm/h N 17,366 klux 119,0 W/qm 0,7 nein - 10:50
10:5512,8 °C 78 % 1016,9 hPa 0,0 mm 0,0 mm nein 3,2 km/h 11,3 km/h 0,0 mm/h SSO 15,571 klux 107,0 W/qm 0,6 nein - 10:55
11:0012,8 °C 77 % 1016,9 hPa 0,0 mm 0,1 mm nein 1,6 km/h 9,7 km/h 0,0 mm/h SSO 14,077 klux 97,0 W/qm 0,5 nein - 11:00
11:0513,3 °C 77 % 1016,8 hPa 0,0 mm 0,0 mm nein 4,8 km/h 9,7 km/h 0,0 mm/h SSO 17,079 klux 118,0 W/qm 0,6 nein - 11:05
11:1013,3 °C 77 % 1016,8 hPa 0,0 mm 0,0 mm nein 3,2 km/h 8,0 km/h 0,0 mm/h SSO 17,468 klux 121,0 W/qm 0,6 nein - 11:10
11:1513,3 °C 78 % 1016,8 hPa 0,0 mm 0,0 mm nein 3,2 km/h 8,0 km/h 0,0 mm/h S 20,304 klux 141,0 W/qm 0,6 nein - 11:15
11:2013,3 °C 78 % 1016,8 hPa 0,0 mm 0,0 mm nein 1,6 km/h 8,0 km/h 0,0 mm/h SSO 19,968 klux 139,0 W/qm 0,7 nein - 11:20
11:2513,3 °C 77 % 1016,7 hPa 0,0 mm 0,0 mm nein 1,6 km/h 12,9 km/h 0,0 mm/h SSO 16,626 klux 116,0 W/qm 0,7 nein - 11:25
11:3013,3 °C 78 % 1016,7 hPa 0,0 mm 0,0 mm nein 1,6 km/h 11,3 km/h 0,0 mm/h SSO 15,874 klux 111,0 W/qm 0,7 nein - 11:30
11:3513,3 °C 78 % 1016,6 hPa 0,0 mm 0,0 mm nein 0,0 km/h 0,0 km/h 0,0 mm/h N 21,549 klux 151,0 W/qm 0,8 nein - 11:35
11:4013,3 °C 78 % 1016,6 hPa 0,0 mm 0,0 mm nein 0,0 km/h 0,0 km/h 0,0 mm/h N 22,218 klux 156,0 W/qm 0,8 nein - 11:40
11:4513,9 °C 78 % 1016,6 hPa 0,0 mm 0,0 mm nein 4,8 km/h 12,9 km/h 0,0 mm/h SSO 20,612 klux 145,0 W/qm 0,7 nein - 11:45
11:5013,9 °C 78 % 1016,6 hPa 0,0 mm 0,0 mm nein 3,2 km/h 9,7 km/h 0,0 mm/h SSO 21,143 klux 149,0 W/qm 0,6 nein - 11:50
11:5513,9 °C 79 % 1016,7 hPa 0,0 mm 0,0 mm nein 3,2 km/h 9,7 km/h 0,0 mm/h SSO 19,549 klux 138,0 W/qm 0,6 nein - 11:55
UhrzeitTemperaturFeuchteLuftdruckNiederschlagEvapotranspirationNiederschlag?WindWindböenRegenrateWindrichtungHelligkeitSolarstrahlungUV-IndexSonne?Feinstaub 10µmUhrzeit
12:0013,9 °C 79 % 1016,6 hPa 0,0 mm 0,1 mm nein 3,2 km/h 12,9 km/h 0,0 mm/h SSO 16,972 klux 120,0 W/qm 0,6 nein - 12:00
12:0513,9 °C 80 % 1016,7 hPa 0,0 mm 0,0 mm nein 0,0 km/h 0,0 km/h 0,0 mm/h N 19,772 klux 140,0 W/qm 0,7 nein - 12:05
12:1013,9 °C 81 % 1016,6 hPa 0,0 mm 0,0 mm nein 0,0 km/h 0,0 km/h 0,0 mm/h N 24,541 klux 174,0 W/qm 0,8 nein - 12:10
12:1513,9 °C 82 % 1016,5 hPa 0,0 mm 0,0 mm nein 0,0 km/h 8,0 km/h 0,0 mm/h SSO 31,695 klux 225,0 W/qm 1,1 nein - 12:15
12:2013,9 °C 82 % 1016,5 hPa 0,0 mm 0,0 mm nein 0,0 km/h 0,0 km/h 0,0 mm/h N 33,349 klux 237,0 W/qm 1,1 nein - 12:20
12:2514,4 °C 83 % 1016,4 hPa 0,0 mm 0,0 mm nein 0,0 km/h 0,0 km/h 0,0 mm/h N 33,597 klux 239,0 W/qm 1,1 nein - 12:25
12:3014,4 °C 83 % 1016,5 hPa 0,0 mm 0,0 mm nein 0,0 km/h 0,0 km/h 0,0 mm/h N 37,922 klux 270,0 W/qm 1,3 nein - 12:30
12:3514,4 °C 82 % 1016,4 hPa 0,0 mm 0,0 mm nein 0,0 km/h 0,0 km/h 0,0 mm/h N 38,877 klux 277,0 W/qm 1,4 ja - 12:35
12:4014,4 °C 82 % 1016,3 hPa 0,0 mm 0,0 mm nein 0,0 km/h 0,0 km/h 0,0 mm/h N 49,233 klux 351,0 W/qm 1,6 ja - 12:40
12:4514,4 °C 81 % 1016,2 hPa 0,0 mm 0,0 mm nein 0,0 km/h 0,0 km/h 0,0 mm/h N 47,807 klux 341,0 W/qm 1,6 ja - 12:45
12:5015,0 °C 81 % 1016,1 hPa 0,0 mm 0,0 mm nein 1,6 km/h 11,3 km/h 0,0 mm/h SW 94,739 klux 676,0 W/qm 2,0 ja - 12:50
12:5515,0 °C 80 % 1016,0 hPa 0,0 mm 0,0 mm nein 3,2 km/h 12,9 km/h 0,0 mm/h SW 82,668 klux 590,0 W/qm 2,1 ja - 12:55
13:0015,0 °C 78 % 1016,0 hPa 0,0 mm 0,2 mm nein 4,8 km/h 12,9 km/h 0,0 mm/h SO 77,616 klux 554,0 W/qm 2,1 ja - 13:00
13:0515,6 °C 77 % 1015,8 hPa 0,0 mm 0,0 mm nein 4,8 km/h 12,9 km/h 0,0 mm/h S 76,217 klux 544,0 W/qm 2,1 ja - 13:05
13:1015,6 °C 77 % 1015,9 hPa 0,0 mm 0,0 mm nein 6,4 km/h 16,1 km/h 0,0 mm/h S 75,528 klux 539,0 W/qm 2,1 ja - 13:10
13:1515,6 °C 75 % 1015,8 hPa 0,0 mm 0,0 mm nein 6,4 km/h 14,5 km/h 0,0 mm/h SSO 76,530 klux 546,0 W/qm 2,1 ja - 13:15
13:2016,1 °C 75 % 1015,7 hPa 0,0 mm 0,0 mm nein 4,8 km/h 12,9 km/h 0,0 mm/h SSO 77,263 klux 551,0 W/qm 2,1 ja - 13:20
13:2516,1 °C 74 % 1015,6 hPa 0,0 mm 0,0 mm nein 3,2 km/h 9,7 km/h 0,0 mm/h SSO 77,865 klux 555,0 W/qm 2,1 ja - 13:25
13:3016,1 °C 74 % 1015,5 hPa 0,0 mm 0,0 mm nein 4,8 km/h 12,9 km/h 0,0 mm/h S 80,725 klux 575,0 W/qm 2,1 ja - 13:30
13:3516,1 °C 73 % 1015,4 hPa 0,0 mm 0,0 mm nein 0,0 km/h 6,4 km/h 0,0 mm/h S 43,696 klux 311,0 W/qm 2,0 ja - 13:35
13:4016,1 °C 73 % 1015,3 hPa 0,0 mm 0,0 mm nein 0,0 km/h 0,0 km/h 0,0 mm/h N 47,954 klux 341,0 W/qm 1,7 ja - 13:40
13:4516,1 °C 72 % 1015,4 hPa 0,0 mm 0,0 mm nein 0,0 km/h 0,0 km/h 0,0 mm/h N 89,392 klux 635,0 W/qm 2,2 ja - 13:45
13:5016,1 °C 72 % 1015,4 hPa 0,0 mm 0,0 mm nein 0,0 km/h 11,3 km/h 0,0 mm/h SSO 66,663 klux 473,0 W/qm 2,0 ja - 13:50
13:5516,7 °C 71 % 1015,3 hPa 0,0 mm 0,0 mm nein 1,6 km/h 8,0 km/h 0,0 mm/h SSO 84,246 klux 597,0 W/qm 2,2 ja - 13:55
UhrzeitTemperaturFeuchteLuftdruckNiederschlagEvapotranspirationNiederschlag?WindWindböenRegenrateWindrichtungHelligkeitSolarstrahlungUV-IndexSonne?Feinstaub 10µmUhrzeit
14:0016,7 °C 71 % 1015,2 hPa 0,0 mm 0,3 mm nein 0,0 km/h 3,2 km/h 0,0 mm/h WNW 84,364 klux 597,0 W/qm 2,1 ja - 14:00
14:0516,7 °C 71 % 1015,2 hPa 0,0 mm 0,0 mm nein 4,8 km/h 11,3 km/h 0,0 mm/h S 74,159 klux 524,0 W/qm 2,0 ja - 14:05
14:1016,7 °C 71 % 1015,1 hPa 0,0 mm 0,0 mm nein 4,8 km/h 11,3 km/h 0,0 mm/h SSO 72,578 klux 512,0 W/qm 1,9 ja - 14:10
14:1516,7 °C 71 % 1015,1 hPa 0,0 mm 0,0 mm nein 3,2 km/h 6,4 km/h 0,0 mm/h S 71,142 klux 501,0 W/qm 1,8 ja - 14:15
14:2016,7 °C 71 % 1015,1 hPa 0,0 mm 0,0 mm nein 3,2 km/h 11,3 km/h 0,0 mm/h SW 69,993 klux 492,0 W/qm 1,8 ja - 14:20
14:2516,7 °C 71 % 1015,2 hPa 0,0 mm 0,0 mm nein 8,0 km/h 14,5 km/h 0,0 mm/h SSO 69,844 klux 490,0 W/qm 1,7 ja - 14:25
14:3016,7 °C 71 % 1015,1 hPa 0,0 mm 0,0 mm nein 3,2 km/h 14,5 km/h 0,0 mm/h SSO 69,273 klux 485,0 W/qm 1,7 ja - 14:30
14:3516,7 °C 71 % 1015,1 hPa 0,0 mm 0,0 mm nein 6,4 km/h 16,1 km/h 0,0 mm/h SSO 67,991 klux 475,0 W/qm 1,7 ja - 14:35
14:4016,7 °C 70 % 1015,1 hPa 0,0 mm 0,0 mm nein 4,8 km/h 11,3 km/h 0,0 mm/h SSO 67,140 klux 468,0 W/qm 1,6 ja - 14:40
Gesamt: 11,2 °C 79 % 1016,3 hPa 0,0 mm 1,0 mm nein 3,7 km/h 9,4 km/h 0,0 mm/h 0 15,323 klux 107,1 W/qm 0,4 ja nan µg/m³

Insgesamt 177 Zeilen mal 15 Spalten = 2655 Werte werden angezeigt.

www.wetter-rosstal.de   •   www.wetter-franken.de   •   www.lightningmaps.org   •   Start   •   Kontakt / Datenschutz   •   PC-Kümmerer